Content
SEND FEEDBACK

Daily
Averages
Monthly
Summary
United States of America

BERKELEY, MISSOURI


Home > North America > United States > Missouri
Elevation: 564 feet     Latitude: 38 45N     Longitude: 090 22W

WEATHER
 
SELECT A DAY
Number of Records: 206,508;   Date Range: 1/1/95 - 10/20/14
 
SHARE

PRINT THIS DATA

[ ← Previous Day ]
WEATHER ALMANAC - APRIL 10, 2013
[ Next Day → ]
[ °C ]   °F
Weather ElementAverageHighLow
Temperature68.4 °F82 °F (3:51 pm)60.1 °F (9:51 pm)
Dewpoint60.9 °F64.9 °F (4:51 pm)57 °F (8:51 pm)
Humidity77.9 %94 % (8:16 pm)51 % (3:51 pm)
Barometer29.73 in29.84 in (11:31 am)29.59 in (7:29 pm)
Wind Speed9 mph23 mph (7:51 pm)
Wind Gust43.7 mph (8:16 pm)
Weather ElementAverage
Visibility7.9 mi
Wind DirectionSE (135.8 °)

Weather ElementTotal
Precipitation1.79 in
Cooling Degree Days6.1 (Base 65)
Growing Degree Days21.1 (Base 50)
Averaged from 38 records on April 10, 2013
WEATHER CONDITIONS BREAKOUT
WIND DIRECTION BREAKOUT
WEATHER BY HOUR - APRIL 10, 2013
[ °C ]   °F
Local TimeTemperatureDewpointHumidityBarometerVisibilityWind DirectionWind SpeedGust SpeedPrecipitationEventsConditions
1:51 AM68.0 °F60.1 °F76 %29.78 in10.0 miSE (140°)6.9 mphPartly Cloudy
2:51 AM70.0 °F61.0 °F73 %29.78 in10.0 miSSE (160°)6.9 mphMostly Cloudy
3:51 AM70.0 °F61.0 °F73 %29.75 in10.0 miSSE (150°)9.2 mphPartly Cloudy
4:51 AM70.0 °F62.1 °F76 %29.73 in10.0 miSSE (160°)9.2 mphMostly Cloudy
5:51 AM71.1 °F63.0 °F75 %29.72 in10.0 miSSE (160°)10.4 mphMostly Cloudy
6:51 AM71.1 °F63.0 °F75 %29.76 in8.0 miWest (270°)15.0 mph21.9 mphOvercast
6:58 AM71.6 °F62.6 °F73 %29.81 in8.0 miWNW (300°)12.7 mph24.2 mphOvercast
7:46 AM69.8 °F60.8 °F73 %29.81 in9.0 miCalm0.00 inOvercast
7:51 AM70.0 °F60.1 °F71 %29.79 in9.0 miWest (280°)3.5 mph0.00 inOvercast
8:51 AM70.0 °F60.1 °F71 %29.79 in10.0 miCalm0.00 inRainLight Rain
9:11 AM69.8 °F60.8 °F73 %29.82 in8.0 miCalm0.01 inRain-ThunderstormLight Thunderstorms and Rain
9:46 AM69.8 °F60.8 °F73 %29.82 in10.0 miCalm0.06 inRainLight Rain
9:51 AM69.1 °F62.1 °F78 %29.80 in10.0 miCalm0.06 inRainLight Rain
10:48 AM64.4 °F59.0 °F83 %29.83 in10.0 miNorth (350°)9.2 mph26.5 mph0.00 inOvercast
10:51 AM64.0 °F60.1 °F87 %29.81 in10.0 miNorth (10°)4.6 mph26.5 mph0.00 inOvercast
11:31 AM62.6 °F57.2 °F82 %29.84 in7.0 miNW (320°)11.5 mph19.6 mph0.00 inRainLight Rain
11:51 AM64.9 °F60.1 °F84 %29.82 in8.0 miNorth (360°)6.9 mph0.00 inOvercast
12:51 PM68.0 °F60.1 °F76 %29.78 in8.0 miNE (40°)3.5 mphOvercast
1:51 PM75.0 °F61.0 °F62 %29.74 in9.0 miVariable3.5 mphMostly Cloudy
2:51 PM79.0 °F63.0 °F58 %29.70 in10.0 miEast (100°)6.9 mphMostly Cloudy
3:08 PM78.8 °F64.4 °F61 %29.71 in10.0 miEast (100°)9.2 mphThunderstormThunderstorm
3:51 PM82.0 °F62.1 °F51 %29.63 in10.0 miSouth (180°)16.1 mph26.5 mphThunderstormThunderstorm
3:59 PM71.6 °F62.6 °F73 %29.70 in9.0 miWest (280°)18.4 mph36.8 mphThunderstormThunderstorm
4:25 PM69.8 °F64.4 °F83 %29.70 in1.5 miVariable3.5 mph18.4 mph0.03 inRain-ThunderstormThunderstorms and Rain
4:32 PM69.8 °F64.4 °F83 %29.67 in5.0 miNNE (30°)10.4 mph0.15 inRain-ThunderstormLight Thunderstorms and Rain
4:51 PM69.1 °F64.9 °F87 %29.64 in7.0 miNNE (20°)10.4 mph0.17 inMostly Cloudy
5:51 PM68.0 °F63.0 °F84 %29.62 in10.0 miENE (60°)9.2 mphOvercast
7:29 PM77.0 °F64.4 °F65 %29.59 in6.0 miSSE (160°)16.1 mph31.1 mph0.00 inRain-ThunderstormLight Thunderstorms and Rain
7:51 PM75.0 °F64.0 °F69 %29.62 in5.0 miSouth (190°)23.0 mph29.9 mph0.02 inRain-ThunderstormLight Thunderstorms and Rain
8:16 PM62.6 °F60.8 °F94 %29.72 in3.0 miWest (280°)20.7 mph43.7 mph0.16 inRain-ThunderstormThunderstorms and Rain
8:25 PM62.6 °F59.0 °F88 %29.73 in5.0 miWNW (300°)18.4 mph28.8 mph0.24 inRain-ThunderstormLight Thunderstorms and Rain
8:51 PM61.0 °F57.0 °F87 %29.70 in4.0 miWest (280°)12.7 mph0.35 inRain-ThunderstormLight Thunderstorms and Rain
9:51 PM60.1 °F57.9 °F93 %29.71 in4.0 miCalm0.23 inRain-ThunderstormLight Thunderstorms and Rain
10:25 PM60.8 °F57.2 °F88 %29.70 in5.0 miEast (80°)8.1 mph0.09 inRain-ThunderstormLight Thunderstorms and Rain
10:51 PM60.1 °F57.9 °F93 %29.66 in6.0 miEast (100°)9.2 mph0.16 inRainLight Rain
11:16 PM60.8 °F57.2 °F88 %29.67 in8.0 miESE (120°)17.3 mph0.02 inRainLight Rain
11:43 PM60.8 °F57.2 °F88 %29.67 in8.0 miEast (90°)9.2 mph0.02 inOvercast
11:51 PM60.1 °F57.9 °F93 %29.66 in8.0 miEast (90°)9.2 mph0.02 inOvercast
Hourly data recorded from KSTL, located miles away from Berkeley, Missouri







STORIES FROM OUR PARTNERS